COSMOS 1086

Satellite information

Favourite Embed

Satellite Type and Status

PAYLOADIN ORBIT

Key statistics

Satellite COSMOS 1086 at a glance.

Uptime

17082

Days in orbit

Revolutions

≈ 12.5

Per day

Orbit

LEO

Low Earth Orbit

Inclination

74.0

Latest

Satellite identification and parameters

Extended collection of information and parameters for COSMOS 1086.

Object identification

Identified? True

Debris? False

Object name: COSMOS 1086

International designator: 1979-024F

Object number (NORAD): 11301

Object ID (CCSDS): 11301

Country: COMMONWEALTH OF INDEPENDENT STATES (CIS)

Current information (Y/N): Y

RCS size: MEDIUM

Orbital parameters

Period: 115.396 minutes

Inclination: 74.035 deg

SMA: 7851.51 km

Apoapsis: 1482.436 km

Periapsis: 1464.313 km

RAAN: 305.8389 deg

Eccentricy: 0.00115411

Argument of periapsis: 262.5035 deg

Mean anomaly: 112.5793 deg

Mean motion: 12.47880475 rev/day

Mean motion (dot): -0.00000024 rev/day2

B* drag term: -0.000054982374 1/REarth

Two-line elements (TLE)

Creation date: Dec. 20, 2025, 3:40 a.m.

Reference frame: TEME

Reference center: EARTH

Epoch: Dec. 19, 2025, 8:50 p.m. UTC

TLE line 0: 0 COSMOS 1086

TLE line 1: 1 11301U 79024F 25353.86846818 -.00000024 00000-0 -54982-4 0 9995

TLE line 2: 2 11301 74.0350 305.8389 0011541 262.5035 112.5793 12.47880475130286

Live tracking on map

Real-time ground track for satellite COSMOS 1086.

In-orbit conjunctions

A list of the most updated potential collisions computed for object COSMOS 1086.

Target Orbit TCA Probability of collision Miss distance Type
DELTA 1 DEB SSO 2025-10-04 01:34:36 0.0001316463 239.0 (m) DEBRIS

Associated space launch

Military communications satellites

COSMOS 1086 was lifted into orbit during the mission ‘Kosmos-3M | Strela-1M 169-176’, on board a Kosmos-3M space rocket.

The launch took place on March 15, 1979, 2:58 a.m. from 132/2.

For more information about the launch, click the button.

Launch to space Kosmos-3M | Strela-1M 169-176
Kosmos-3M | Strela-1M 169-176

Agency: N/A

Status: Launch Successful

Launch date: March 15, 1979, 2:58 a.m. UTC

Rocket: Kosmos-3M

Launch pad: 132/2

Location: Plesetsk Cosmodrome, Russian Federation

...

Latest news about this satellite

There are no fresh news available about this satellite. Check back as we update our databases every day.


Newsletter sign-up

Weekly statistics, charts and insights to help you stay on top of the space industry.